Location: Bacea
(45.9500°N, 22.6667°E)
Time: 07:42:26
(UTC+00:00)

Envisat - Pass Details

Date: 28 January 2022
Orbit: 764 x 765 km, 98.2° (Epoch: 16 May)

Event Time Altitude Azimuth Distance (km) Brightness Sun altitude
Rises 04:42:35 0° 2° (N) 3,242 6.1 -12.9°
Reaches altitude 10° 04:45:19 10° 348° (NNW) 2,312 5.2 -12.5°
Maximum altitude 04:49:13 23° 298° (WNW) 1,595 4.1 -11.8°
Drops below altitude 10° 04:53:07 10° 247° (WSW) 2,301 5.0 -11.1°
Sets 04:55:50 0° 233° (SW) 3,223 5.9 -10.7°
